Wind_Speed
69 76 75 78 76 83 86 80 75 71 65 67 71 71 72 74 77 70 68 67 71 75 74 73 72 69 73 71 74 82 89 89 89 87 86 84 84 85 85 86 82 80 78 75 76 74 73
71 75 77 83 85 89 89 90 78 72 71 70 70 72 73 76 78 76 72 70 70 75 73 70 65 63 70 67 75 79 82 85 86 86 85 83 81 81 82 84 80 78 77 78 76 73 73
76 78 81 83 88 94 96 90 83 77 71 69 72 75 78 81 82 80 76 73 70 69 70 68 66 61 65 59 69 71 76 79 81 80 78 79 78 80 79 79 78 77 72 71 73 72 67
76 81 85 89 90 97 103 99 91 83 78 76 77 82 84 85 84 79 73 73 70 67 65 67 60 54 58 62 64 66 70 72 72 73 71 72 75 77 77 77 75 72 69 69 70 67 63
81 84 89 90 94 103 100 99 94 89 85 85 86 88 88 88 87 78 68 66 67 66 62 66 58 52 56 56 58 59 61 62 64 65 66 62 66 72 72 67 66 65 64 62 61 63 63
89 91 95 98 100 108 105 103 98 95 94 94 89 90 88 82 80 77 69 61 60 61 60 54 47 47 54 52 52 52 54 55 55 54 55 59 61 63 62 58 59 58 59 59 61 63 61
96 97 98 103 106 108 112 110 105 95 87 79 76 73 72 70 66 68 65 59 55 57 58 54 43 42 42 43 48 44 44 47 48 53 53 48 51 52 54 52 53 54 57 61 62 62 62
98 101 105 108 111 113 109 101 94 86 79 70 61 57 57 58 56 53 53 54 50 51 47 40 36 36 37 41 36 33 35 41 40 39 39 43 44 47 47 48 51 54 55 53 53 52 52
105 107 110 115 117 108 94 87 80 72 64 53 47 44 44 46 45 43 43 43 42 42 33 32 32 36 34 31 26 31 32 27 31 33 34 36 38 42 43 46 46 43 41 40 40 41 41
111 111 113 117 104 86 80 74 65 60 55 44 37 32 33 35 36 33 30 32 32 27 30 33 33 27 26 27 28 24 22 24 23 26 29 35 37 37 38 35 35 33 32 34 34 35 34
119 116 116 104 91 86 77 67 60 52 42 33 28 22 25 23 25 19 22 24 25 30 32 31 30 27 27 25 23 18 15 17 21 26 33 29 30 28 26 26 25 24 23 24 24 27 31
127 124 113 99 92 81 75 63 49 39 31 24 18 13 10 14 16 17 21 26 30 30 31 31 31 26 24 23 19 15 15 18 22 25 21 22 19 18 17 16 15 14 16 19 21 22 25
128 121 109 97 89 80 68 54 41 32 23 17 10 3 6 10 16 21 27 26 30 33 33 34 29 27 23 18 14 11 11 14 17 16 13 13 12 11 12 14 15 17 19 18 19 20 23
126 112 96 88 84 75 64 49 36 26 18 14 9 13 14 17 21 24 26 29 39 36 35 32 31 26 20 15 10 8 6 11 11 7 9 6 7 10 13 17 21 19 18 18 21 20 24
118 99 87 82 77 68 57 40 30 24 21 17 17 24 27 25 25 28 38 42 39 36 35 34 27 24 19 13 7 4 6 7 4 5 4 5 10 17 19 21 23 25 24 22 23 21 25
105 90 88 78 72 55 46 34 32 31 34 31 31 34 35 36 39 42 40 39 41 40 35 30 25 21 16 12 7 4 4 1 0 3 6 12 16 22 25 27 28 30 26 26 25 23 25
93 88 83 73 59 49 40 38 38 37 37 31 36 41 40 42 42 41 43 42 40 36 33 28 23 20 15 11 8 6 2 4 5 8 12 17 20 24 27 31 32 29 27 24 22 23 23
84 86 72 58 53 43 39 44 43 38 37 35 41 47 45 43 46 45 43 40 35 33 29 26 23 19 17 14 12 7 7 7 9 13 15 20 25 27 29 32 31 29 28 25 24 21 22
87 80 56 58 52 43 41 38 36 37 43 45 50 49 48 46 44 42 39 36 35 33 30 27 24 23 21 20 14 12 13 13 14 15 16 21 25 28 29 31 32 31 29 25 19 18 21
85 70 60 62 60 50 38 34 38 37 44 50 53 46 45 44 43 43 41 39 37 34 32 29 28 28 27 24 20 19 21 21 21 18 19 19 22 24 28 30 34 31 30 27 24 23 23
77 72 70 72 63 50 39 42 42 42 43 45 47 46 43 46 46 47 45 42 39 36 33 32 31 34 33 31 30 30 30 30 31 29 24 22 19 18 25 33 32 33 33 32 27 22 23
82 75 75 69 59 52 46 43 35 34 37 40 42 44 44 46 47 47 46 43 41 38 38 36 36 40 38 38 39 40 38 38 38 38 35 32 26 24 21 20 24 25 30 31 33 33 32
95 88 74 69 59 47 37 38 33 28 31 37 38 42 42 42 44 46 47 46 45 42 40 41 43 43 44 44 46 46 47 47 45 45 45 41 37 33 31 27 27 24 23 22 22 25 24
102 93 73 61 64 49 38 38 31 26 27 28 30 34 39 42 44 44 47 48 46 44 42 43 44 44 45 47 48 48 49 49 49 51 50 47 45 43 43 43 42 39 37 33 35 32 30
92 88 74 60 54 47 40 39 27 22 21 22 21 26 31 35 39 40 42 43 42 41 40 41 43 45 43 44 46 49 50 49 48 48 48 47 46 45 43 42 40 39 38 37 36 33 33
84 84 77 65 50 41 40 32 27 19 16 17 18 18 22 27 34 37 38 38 38 37 36 37 39 39 40 41 42 44 44 44 44 44 43 42 42 42 41 39 37 35 33 30 28 27 24
79 79 75 68 57 41 37 30 27 17 13 12 12 12 14 20 25 27 30 31 31 31 32 31 32 33 33 35 36 37 37 37 37 37 37 36 35 34 33 33 32 31 29 27 25 22 21
81 70 76 78 63 45 34 26 19 22 10 9 8 7 5 7 12 14 18 22 24 24 24 24 25 26 26 27 28 28 28 28 29 29 29 27 26 26 25 24 23 22 21 20 19 16 12
66 70 72 72 70 54 32 27 23 27 17 10 9 7 6 7 4 6 8 13 15 15 15 14 15 16 17 18 19 20 20 20 19 19 17 17 17 17 17 17 15 14 13 11 9 8 8
Wind_Direction
337 334 337 334 330 331 330 320 314 304 295 289 287 287 287 289 289 281 273 264 260 260 262 261 261 254 252 248 246 247 247 248 248 250 251 252 252 254 255 255 258 260 262 261 259 256 254
333 332 335 334 335 332 327 322 311 305 301 294 289 287 287 287 286 282 277 266 259 259 261 262 258 255 255 248 246 243 246 248 247 248 249 251 252 252 255 256 259 261 261 260 259 258 257
332 331 332 329 328 331 327 318 312 302 296 294 291 286 283 283 281 278 273 269 264 259 259 262 259 257 257 248 244 244 243 246 247 249 251 252 254 254 256 258 261 262 262 261 260 259 259
330 331 329 328 325 327 324 319 310 301 297 294 291 288 285 282 279 275 271 267 265 262 261 260 263 259 253 247 244 245 243 244 248 250 251 251 253 255 258 260 264 264 262 262 261 262 258
337 338 335 331 329 327 320 317 309 302 298 292 287 282 279 277 276 275 271 266 264 263 260 259 262 256 254 245 244 245 242 245 247 248 251 254 255 256 260 263 263 263 262 260 260 257 253
340 338 336 333 329 325 319 311 309 302 295 291 287 283 280 278 274 272 268 262 261 258 257 258 260 250 248 241 240 243 242 244 248 253 251 253 256 257 259 260 261 261 260 260 258 257 255
341 336 335 333 328 324 319 314 310 308 304 298 293 286 281 275 270 266 265 260 254 256 255 257 253 247 242 235 236 240 243 247 250 248 251 256 257 258 259 261 262 265 267 265 263 261 258
341 339 337 333 328 323 320 316 312 311 306 302 295 287 278 270 265 260 256 252 250 248 251 256 240 237 229 230 236 238 238 239 245 251 251 253 255 258 263 266 268 268 269 266 262 258 253
342 340 338 333 328 325 320 317 313 309 307 302 294 284 271 265 262 256 249 246 240 242 243 231 226 222 220 227 224 224 230 238 242 245 251 258 262 264 268 270 272 271 268 265 257 248 242
343 341 338 333 330 327 325 321 318 315 310 305 297 282 264 257 253 250 243 233 231 226 215 208 212 210 207 205 205 211 222 234 243 254 259 261 268 274 275 274 272 268 261 253 243 234 223
347 341 341 339 338 338 333 328 323 317 313 309 299 278 261 249 242 231 218 212 201 199 197 195 191 193 191 191 190 198 209 233 250 257 261 275 275 275 273 271 263 253 242 229 220 211 204
348 345 344 343 342 342 338 332 328 326 325 321 313 292 264 222 207 191 179 181 183 185 182 177 182 182 176 177 171 184 212 238 249 263 279 277 281 273 264 246 230 209 196 196 193 188 183
347 347 345 345 346 345 341 341 340 337 338 343 346 340 144 169 160 162 161 165 171 170 166 171 169 163 162 152 166 183 218 243 259 273 280 283 266 251 231 204 176 163 163 163 169 172 162
349 348 346 344 345 347 347 348 351 354 9 25 59 96 117 137 141 145 152 160 157 155 156 155 152 148 147 147 157 193 228 255 269 285 270 253 226 192 178 159 141 129 128 144 159 165 164
351 350 350 346 348 351 354 358 7 24 41 53 81 99 107 119 132 145 143 149 150 148 142 139 139 135 136 135 161 191 231 256 304 267 220 187 173 153 136 134 131 123 126 143 157 167 166
353 354 349 349 349 360 7 21 39 58 65 76 94 105 110 117 131 135 138 137 134 134 131 129 126 121 124 133 142 166 232 265 7 186 145 144 148 139 125 124 126 122 133 147 155 171 168
355 355 352 352 0 9 30 46 56 64 76 93 105 105 114 123 126 126 124 125 125 124 121 116 117 119 122 127 129 143 131 119 125 135 144 136 136 129 129 127 120 120 128 135 145 154 158
359 355 356 6 14 26 43 52 61 70 84 95 102 104 109 111 114 115 115 114 115 109 110 115 117 121 115 118 115 129 104 104 124 133 139 140 136 134 133 128 124 124 127 127 141 147 152
360 360 6 24 28 37 40 57 64 80 92 96 92 96 99 100 103 104 104 105 106 107 109 111 113 111 111 105 108 113 107 108 112 120 133 144 140 134 133 130 129 127 125 124 129 141 146
4 8 17 29 35 37 34 65 83 88 93 93 92 92 96 99 101 102 102 102 100 101 102 106 107 107 103 105 109 107 101 100 101 107 117 128 140 134 136 137 136 132 126 129 138 147 153
14 21 32 42 39 42 58 68 74 81 88 93 98 96 98 99 97 96 95 96 99 101 105 105 108 106 107 109 106 103 101 100 100 99 103 103 114 132 141 139 138 135 134 131 137 143 160
18 25 28 38 43 41 44 51 62 76 87 93 96 96 95 95 96 98 98 99 99 101 102 103 105 107 110 108 104 100 100 100 100 101 101 100 96 93 116 122 133 130 138 139 139 146 153
25 22 21 26 27 39 41 36 40 61 77 84 89 92 97 100 100 101 100 98 98 98 98 101 102 105 105 104 102 100 97 95 96 97 95 95 98 102 104 104 101 103 105 113 122 141 154
13 22 19 16 14 22 23 23 33 54 70 79 90 99 101 103 103 102 101 100 101 100 101 101 102 103 102 103 100 99 97 97 94 93 94 96 99 99 98 99 100 98 99 103 106 108 109
7 14 17 14 13 8 9 14 23 37 58 69 85 101 103 104 102 100 100 99 99 101 102 103 103 102 103 105 103 103 100 98 97 96 96 96 96 96 94 91 90 87 88 85 80 79 84
5 9 14 16 4 6 357 355 13 23 45 64 79 97 104 104 100 98 97 94 93 95 93 94 92 90 89 90 91 93 95 95 95 93 92 93 94 95 97 95 95 96 99 102 99 95 90
358 7 13 10 9 354 355 342 350 5 15 34 60 79 95 104 99 98 99 100 99 99 97 94 92 91 89 89 90 91 93 92 93 93 96 95 93 92 92 92 90 92 92 91 88 84 80
356 2 8 11 4 1 343 344 317 335 337 352 11 30 62 69 86 89 94 96 97 93 93 94 92 91 88 87 88 89 88 88 89 92 93 92 93 94 94 90 87 85 85 82 79 74 74
2 3 7 10 13 4 341 323 314 305 306 295 316 325 342 340 5 77 81 92 96 89 86 86 88 89 89 88 84 85 86 85 85 87 86 89 90 95 99 99 98 94 88 77 68 64 42
Height
10668 10656 10644 10631 10620 10606 10593 10580 10566 10554 10544 10534 10525 10519 10513 10505 10498 10492 10488 10489 10491 10489 10489 10492 10497 10501 10503 10510 10515 10523 10525 10532 10542 10548 10554 10557 10561 10566 10568 10567 10572 10578 10574 10579 10580 10585 10588
10657 10643 10630 10617 10602 10587 10571 10558 10545 10531 10522 10511 10500 10493 10486 10481 10473 10469 10466 10466 10468 10470 10468 10473 10475 10481 10483 10491 10491 10502 10505 10514 10521 10527 10534 10539 10542 10547 10548 10549 10554 10554 10557 10556 10560 10564 10567
10645 10630 10614 10598 10582 10567 10551 10535 10522 10509 10498 10489 10476 10467 10460 10454 10449 10444 10443 10444 10444 10450 10451 10454 10457 10460 10466 10473 10473 10481 10490 10495 10503 10510 10516 10521 10525 10527 10530 10530 10531 10534 10539 10541 10539 10543 10549
10630 10615 10598 10580 10563 10547 10531 10512 10494 10481 10466 10459 10449 10438 10430 10424 10420 10420 10422 10421 10424 10428 10434 10437 10440 10444 10449 10455 10459 10466 10474 10481 10489 10494 10500 10503 10507 10509 10512 10511 10515 10516 10521 10519 10517 10521 10529
10615 10598 10580 10561 10541 10522 10502 10482 10464 10447 10436 10426 10416 10404 10400 10394 10390 10392 10398 10401 10406 10411 10417 10418 10425 10431 10435 10441 10447 10452 10461 10470 10474 10478 10483 10491 10493 10492 10493 10498 10499 10498 10501 10502 10502 10502 10505
10599 10580 10559 10537 10516 10493 10473 10450 10432 10416 10402 10386 10376 10366 10364 10364 10365 10367 10373 10382 10388 10394 10398 10401 10410 10417 10422 10428 10436 10443 10450 10456 10461 10468 10472 10473 10475 10478 10479 10484 10482 10482 10482 10482 10480 10481 10487
10580 10559 10538 10515 10492 10466 10438 10413 10389 10373 10361 10351 10342 10338 10333 10334 10339 10342 10352 10362 10371 10377 10382 10392 10399 10406 10412 10419 10425 10433 10441 10447 10452 10453 10457 10464 10463 10464 10465 10467 10465 10465 10462 10460 10461 10462 10464
10565 10539 10514 10489 10463 10434 10406 10379 10358 10341 10328 10319 10314 10310 10306 10307 10314 10322 10332 10343 10354 10362 10371 10382 10391 10397 10403 10408 10421 10428 10431 10435 10439 10444 10448 10450 10451 10451 10453 10451 10449 10447 10443 10441 10440 10443 10446
10542 10515 10488 10460 10429 10403 10375 10351 10333 10317 10304 10296 10291 10288 10287 10289 10298 10305 10315 10328 10341 10351 10364 10375 10382 10388 10396 10407 10416 10417 10422 10429 10432 10435 10438 10439 10439 10439 10439 10435 10432 10429 10426 10424 10425 10427 10430
10525 10496 10467 10437 10406 10375 10352 10329 10309 10295 10284 10278 10274 10271 10272 10277 10284 10293 10306 10320 10331 10346 10357 10367 10376 10387 10394 10402 10406 10411 10417 10421 10424 10427 10428 10427 10427 10427 10424 10420 10417 10415 10414 10411 10413 10417 10422
10504 10471 10434 10398 10370 10346 10325 10306 10292 10280 10271 10264 10261 10261 10262 10269 10277 10289 10302 10315 10328 10341 10351 10363 10374 10382 10389 10395 10400 10406 10412 10415 10417 10419 10417 10420 10417 10414 10412 10409 10407 10406 10405 10405 10408 10412 10416
10478 10442 10410 10378 10352 10329 10310 10295 10281 10270 10263 10258 10256 10256 10261 10266 10275 10287 10300 10313 10327 10340 10351 10361 10370 10379 10386 10391 10398 10403 10408 10410 10411 10410 10412 10409 10408 10405 10403 10402 10400 10402 10403 10405 10408 10413 10422
10466 10427 10394 10365 10342 10322 10304 10287 10275 10266 10260 10255 10255 10256 10261 10269 10279 10289 10301 10315 10329 10340 10350 10359 10370 10378 10383 10389 10395 10400 10403 10404 10404 10405 10404 10402 10401 10398 10397 10398 10398 10400 10402 10405 10410 10415 10425
10455 10421 10392 10367 10343 10322 10302 10286 10275 10266 10261 10259 10259 10260 10266 10275 10285 10297 10307 10318 10332 10342 10352 10363 10371 10377 10384 10388 10392 10396 10398 10397 10398 10400 10400 10398 10397 10397 10395 10398 10398 10400 10405 10408 10414 10421 10429
10447 10417 10392 10367 10346 10325 10306 10290 10281 10272 10268 10267 10268 10271 10277 10286 10294 10304 10314 10326 10336 10347 10357 10365 10371 10378 10383 10387 10391 10392 10394 10393 10395 10395 10397 10396 10396 10397 10398 10399 10403 10406 10408 10413 10419 10426 10435
10443 10416 10389 10367 10350 10331 10314 10299 10291 10284 10281 10282 10283 10284 10288 10295 10307 10317 10328 10337 10346 10353 10361 10368 10373 10378 10382 10387 10389 10392 10391 10393 10394 10393 10395 10396 10396 10398 10399 10402 10405 10409 10413 10419 10425 10430 10440
10443 10420 10394 10373 10355 10340 10326 10314 10306 10301 10299 10300 10299 10299 10307 10314 10323 10333 10339 10349 10355 10361 10366 10371 10376 10380 10385 10387 10390 10391 10391 10393 10394 10394 10395 10397 10398 10399 10401 10404 10408 10413 10419 10424 10430 10435 10444
10446 10423 10402 10382 10364 10352 10341 10331 10325 10322 10321 10323 10320 10325 10328 10337 10341 10348 10354 10359 10365 10369 10372 10376 10379 10383 10386 10390 10390 10392 10393 10395 10395 10397 10397 10400 10401 10402 10404 10407 10411 10418 10424 10430 10435 10442 10449
10453 10432 10411 10391 10377 10366 10361 10354 10349 10345 10345 10345 10345 10350 10352 10357 10359 10362 10365 10370 10373 10376 10379 10382 10385 10388 10391 10392 10394 10396 10397 10398 10398 10400 10401 10403 10404 10407 10409 10412 10416 10422 10427 10434 10441 10447 10454
10467 10445 10423 10405 10394 10387 10385 10378 10372 10368 10365 10363 10364 10373 10373 10374 10376 10376 10378 10380 10381 10384 10387 10390 10392 10394 10395 10398 10401 10402 10402 10403 10403 10405 10407 10408 10409 10411 10414 10417 10420 10425 10430 10436 10444 10451 10456
10486 10464 10440 10426 10420 10413 10412 10406 10402 10396 10390 10387 10386 10388 10390 10390 10390 10389 10389 10391 10393 10395 10398 10399 10400 10399 10402 10407 10408 10408 10408 10409 10410 10412 10413 10415 10416 10418 10420 10423 10426 10431 10435 10441 10447 10453 10460
10504 10484 10469 10456 10450 10445 10441 10436 10431 10424 10417 10412 10409 10406 10406 10406 10406 10404 10404 10405 10407 10408 10408 10411 10408 10409 10413 10413 10414 10414 10416 10416 10418 10418 10420 10423 10425 10425 10428 10432 10434 10439 10442 10446 10451 10455 10461
10515 10503 10495 10484 10478 10468 10464 10460 10455 10449 10442 10436 10431 10428 10426 10424 10424 10422 10419 10418 10419 10422 10423 10422 10423 10423 10423 10422 10422 10423 10424 10425 10428 10427 10428 10431 10434 10436 10439 10443 10443 10448 10449 10454 10458 10460 10466
10539 10521 10513 10503 10497 10490 10482 10477 10474 10469 10464 10458 10453 10449 10445 10441 10439 10438 10434 10433 10434 10436 10438 10437 10438 10438 10436 10434 10435 10435 10434 10436 10440 10438 10440 10444 10446 10449 10452 10453 10456 10458 10461 10467 10469 10474 10476
10558 10544 10527 10518 10512 10504 10498 10491 10488 10486 10481 10478 10474 10469 10464 10460 10456 10453 10450 10449 10449 10449 10451 10450 10450 10450 10450 10449 10448 10447 10448 10449 10451 10452 10454 10457 10459 10461 10462 10463 10464 10465 10467 10469 10471 10474 10476
10570 10557 10542 10531 10523 10517 10511 10504 10499 10497 10495 10492 10490 10485 10480 10476 10472 10468 10464 10463 10462 10462 10462 10461 10459 10460 10460 10459 10458 10458 10460 10461 10462 10462 10465 10467 10469 10470 10472 10473 10475 10475 10476 10479 10482 10483 10484
10582 10566 10553 10540 10533 10526 10520 10515 10510 10506 10505 10503 10501 10499 10494 10490 10485 10483 10478 10475 10474 10473 10472 10473 10471 10471 10471 10470 10469 10469 10470 10470 10471 10472 10474 10476 10476 10477 10479 10479 10482 10482 10483 10483 10484 10486 10488
10585 10571 10558 10550 10539 10532 10526 10523 10519 10515 10512 10511 10509 10507 10505 10502 10496 10494 10491 10486 10483 10483 10482 10481 10480 10479 10479 10479 10480 10479 10479 10480 10480 10480 10480 10482 10483 10484 10485 10486 10487 10488 10488 10488 10488 10489 10492
10589 10577 10561 10553 10544 10535 10530 10526 10526 10521 10518 10515 10514 10512 10510 10508 10506 10502 10499 10495 10492 10490 10489 10490 10489 10488 10487 10487 10488 10488 10487 10486 10487 10487 10487 10488 10489 10489 10488 10489 10490 10491 10491 10492 10491 10491 10491